"Pseudo-MPEC" for ZTF10FX

Created 2026 Aug 26 0:35:14 UT using Find_Orb

Click here for an explanation of pseudo-MPECs

 
 Astrometry: 
     ZTF10FX*0C2026 08 21.31117421 10 34.885+00 54 50.15   ~8OFo 15.22iUNEOCPI41
     ZTF10FX 0C2026 08 21.31152221 10 44.883+00 56 21.25   ~8OFo 15.22iUNEOCPI41
     ZTF10FX 0C2026 08 21.33320721 21 08.641+02 28 55.60   ~8OFo 15.50gUNEOCPI41
     ZTF10FX 0C2026 08 21.33355521 21 18.500+02 30 23.70   ~8OFo 15.50gUNEOCPI41

Station data:
(I41) Palomar Mountain--ZTF  (N33.357336 W116.859780)  US/California.
   Observers B. T. Bolin, Z. T. F. Collaboration. Measurers B. T. Bolin,
   Z.-Y. Lin, F. J. Masci. 1.2-m f/2.4 Schmidt.

Orbital elements:  ZTF10FX
   Perigee 2026 Aug 21.308314 +/- 29.2 TT =  7:23:58.2 (JD 2461273.808314)
Epoch 2026 Aug 21.0 TT = JDT 2461273.5                           AutoNEOCP
q253241.0931 +/- 1.16e+7            (J2000 equator)
H   28.29 G 0.15                    Peri.    2.925419 +/- 59
                                    Node   314.787178 +/- 60
e  33.02063559 +/- 0.245            Incl.   29.262743 +/- 2.2
From 4 observations 2026 Aug. 21 (32.2 min); mean residual 0".71
Residuals in arcseconds: 
260821 I41  .08+  .86-    260821 I41  1.1+  .33+    
260821 I41  .10-  .86+    260821 I41  1.1-  .34-    

Ephemerides (geocentric):
Date (UTC) HH   RA             Dec           delta  r     elong  mag " sig PA
---- --------  ------------   ------------  ------ ------ -----  --- --------
2026 08 26 01  02 57 04.048   +29 14 46.07  .01959 1.0149 101.9 22.5  41d  89
2026 08 26 02  02 57 16.093   +29 14 46.16  .01976 1.0149 101.9 22.5  41d  89
2026 08 26 03  02 57 27.929   +29 14 46.17  .01993 1.0149 101.9 22.5  41d  89
2026 08 26 04  02 57 39.562   +29 14 46.10  .02010 1.0149 101.9 22.5  41d  89
2026 08 26 05  02 57 50.997   +29 14 45.95  .02027 1.0150 101.9 22.5  41d  89
2026 08 26 06  02 58 02.239   +29 14 45.74  .02044 1.0150 101.9 22.6  41d  88
2026 08 26 07  02 58 13.292   +29 14 45.45  .02061 1.0150 101.9 22.6  41d  88
2026 08 26 08  02 58 24.161   +29 14 45.11  .02078 1.0151 101.9 22.6  40d  88
2026 08 26 09  02 58 34.851   +29 14 44.70  .02095 1.0151 101.9 22.6  40d  88
2026 08 26 10  02 58 45.366   +29 14 44.23  .02112 1.0151 101.9 22.6  40d  88
2026 08 26 11  02 58 55.710   +29 14 43.70  .02129 1.0151 101.9 22.6  40d  87
2026 08 26 12  02 59 05.888   +29 14 43.13  .02146 1.0152 101.9 22.7  39d  87
2026 08 26 13  02 59 15.902   +29 14 42.49  .02163 1.0152 101.9 22.7  41d  85
2026 08 26 14  02 59 25.757   +29 14 41.81  .02180 1.0152 101.9 22.7  46d  82
2026 08 26 15  02 59 35.456   +29 14 41.09  .02197 1.0153 101.9 22.7  44d  92
2026 08 26 16  02 59 45.003   +29 14 40.31  .02214 1.0153 101.9 22.7  43d  91
2026 08 26 17  02 59 54.402   +29 14 39.50  .02231 1.0153 101.9 22.7  43d  91
2026 08 26 18  03 00 03.656   +29 14 38.64  .02248 1.0154 101.9 22.8  43d  91
2026 08 26 19  03 00 12.767   +29 14 37.74  .02265 1.0154 101.9 22.8  42d  91
2026 08 26 20  03 00 21.740   +29 14 36.80  .02282 1.0154 102.0 22.8  42d  90
2026 08 26 21  03 00 30.577   +29 14 35.83  .02299 1.0155 102.0 22.8  42d  90
2026 08 26 22  03 00 39.281   +29 14 34.82  .02316 1.0155 102.0 22.8  42d  90
2026 08 26 23  03 00 47.856   +29 14 33.77  .02333 1.0155 102.0 22.8  42d  90
2026 08 27 00  03 00 56.303   +29 14 32.70  .02350 1.0156 102.0 22.9  42d  90
2026 08 27 01  03 01 04.625   +29 14 31.59  .02367 1.0156 102.0 22.9  42d  90
2026 08 27 02  03 01 12.826   +29 14 30.45  .02384 1.0156 102.0 22.9  42d  90
2026 08 27 03  03 01 20.908   +29 14 29.29  .02401 1.0157 102.0 22.9  42d  90
2026 08 27 04  03 01 28.872   +29 14 28.09  .02418 1.0157 102.0 22.9  41d  89
2026 08 27 05  03 01 36.723   +29 14 26.87  .02435 1.0157 102.1 22.9  41d  89
2026 08 27 06  03 01 44.461   +29 14 25.63  .02453 1.0158 102.1 22.9  41d  89
2026 08 27 07  03 01 52.089   +29 14 24.36  .02470 1.0158 102.1 23.0  41d  89
2026 08 27 08  03 01 59.610   +29 14 23.06  .02487 1.0159 102.1 23.0  41d  89
2026 08 27 09  03 02 07.026   +29 14 21.74  .02504 1.0159 102.1 23.0  41d  89
2026 08 27 10  03 02 14.338   +29 14 20.40  .02521 1.0159 102.1 23.0  41d  89
2026 08 27 11  03 02 21.549   +29 14 19.04  .02538 1.0160 102.1 23.0  41d  89
2026 08 27 12  03 02 28.661   +29 14 17.66  .02555 1.0160 102.2 23.0  41d  88
2026 08 27 13  03 02 35.676   +29 14 16.26  .02572 1.0160 102.2 23.0  41d  88
2026 08 27 14  03 02 42.595   +29 14 14.84  .02589 1.0161 102.2 23.1  41d  88
2026 08 27 15  03 02 49.421   +29 14 13.41  .02606 1.0161 102.2 23.1  40d  88
2026 08 27 16  03 02 56.154   +29 14 11.95  .02623 1.0161 102.2 23.1  40d  88
2026 08 27 17  03 03 02.798   +29 14 10.48  .02640 1.0162 102.2 23.1  40d  87
2026 08 27 18  03 03 09.353   +29 14 08.99  .02657 1.0162 102.2 23.1  40d  87
2026 08 27 19  03 03 15.822   +29 14 07.49  .02674 1.0163 102.3 23.1  39d  87
2026 08 27 20  03 03 22.205   +29 14 05.97  .02691 1.0163 102.3 23.1  44d  83
2026 08 27 21  03 03 28.505   +29 14 04.43  .02708 1.0163 102.3 23.1  45d  92
2026 08 27 22  03 03 34.723   +29 14 02.88  .02725 1.0164 102.3 23.2  44d  92
2026 08 27 23  03 03 40.861   +29 14 01.32  .02742 1.0164 102.3 23.2  43d  91
2026 08 28 00  03 03 46.919   +29 13 59.75  .02759 1.0165 102.4 23.2  43d  91